Location: Trout Lake
(45.9980°N, 121.5270°W)
Time: 20:34:17
(UTC-08:00)

Cosmos 2344 - Pass Details

Date: 06 December 2023
Orbit: 1212 x 3030 km, 63.3° (Epoch: 22 February)

Event Time Altitude Azimuth Distance (km) Brightness Sun altitude
Rises 18:01:08 0° 219° (SW) 4,413 7.3 -16.7°
Reaches altitude 10° 18:04:05 10° 220° (SW) 3,316 6.6 -17.2°
Maximum altitude 18:11:41 84° 309° (NW) 1,225 3.5 -18.4°
Enters shadow 18:17:15 19° 37° (NE) 2,577 4.8 -19.4°
